Location: Home
(42.5358°N, 72.7383°W)
Time: 17:03:39
(UTC-05:00)

A-11 Canister half - Pass Details

Date: 07 December 2021
Orbit: 1516 x 1684 km, 47.2° (Epoch: 18 January)

Event Time Altitude Azimuth Distance (km) Brightness Sun altitude
Rises 02:56:33 0° 169° (SSE) 4,688 11.6 -45.3°
Reaches altitude 10° 03:02:20 10° 141° (SE) 3,746 11.2 -44.2°
Maximum altitude 03:05:29 12° 121° (ESE) 3,608 11.3 -43.7°
Drops below altitude 10° 03:08:39 10° 101° (E) 3,796 11.6 -43.1°
Sets 03:14:34 0° 74° (ENE) 4,831 12.4 -42.0°
